User: anonymous
Location: Allison's Woods
(35.8809°N, 80.8140°W)
Time: 01:30:25
(UTC-04:00)
Language:

Iridium 39 - Orbit

View from above orbital plane
View from above orbital plane
View from above satellite
View from above satellite

Ground track
Ground track

The orbit data is extracted from the following two-line orbital elements,

1 25042U 97069D   14105.77530262  .00000257  00000-0  84531-4 0  7725
2 25042 086.3962 146.3707 0002488 115.4662 244.6791 14.34221417860279
Epoch (UTC): 15 April 2014 18:36:26
Eccentricity: 0.0002488
inclination: 86.3962°
perigee height: 776 km
apogee height: 779 km
right ascension of ascending node: 146.3707°
argument of perigee: 115.4662°
revolutions per day: 14.34221417
mean anomaly at epoch: 244.6791°
orbit number at epoch: 86027

The dashed part of the orbit path shows where the satellite is in the earth's shadow,  

DLR